User: anonymous   Login
Location: Pulvis Stellarum Observatory
(41.6962°N, 71.4263°W)
Time: 13:04:48
(UTC-04:00)
Language:

Cosmos 1758 - Orbit

View from above orbital plane
View from above orbital plane
View from above satellite
View from above satellite

Ground track
Ground track

The orbit data is extracted from the following two-line orbital elements,

1 16791U 86046A   18110.92847992 +.00000044 +00000-0 +10083-5 0  9994
2 16791 082.4679 092.1862 0018160 118.6526 241.6529 15.04662129731674
Epoch (UTC): 20 April 2018 22:17:00
Eccentricity: 0.0018160
inclination: 82.4679°
perigee height: 540 km
apogee height: 565 km
right ascension of ascending node: 92.1862°
argument of perigee: 118.6526°
revolutions per day: 15.04662129
mean anomaly at epoch: 241.6529°
orbit number at epoch: 73167

The dashed part of the orbit path shows where the satellite is in the earth's shadow,  

DLR